Data No, UTC Date,UTC Time,Latitude,Longitude,Course(deg),Temp(degC),Sal(psu)
548,2018/6/8,9:07,42-36.56N,141-36.85E,200,13.701,30.4806
549,2018/6/8,9:08,42-36.30N,141-36.83E,180,13.617,30.7135
550,2018/6/8,9:09,42-36.03N,141-36.84E,177,13.833,30.5027
551,2018/6/8,9:10,42-35.75N,141-36.85E,177,14.109,30.9181
552,2018/6/8,9:11,42-35.47N,141-36.86E,178,13.704,31.005
553,2018/6/8,9:12,42-35.19N,141-36.87E,179,13.322,31.2138
554,2018/6/8,9:13,42-34.91N,141-36.88E,179,13.188,31.4151
555,2018/6/8,9:14,42-34.63N,141-36.88E,179,13.086,31.5261
556,2018/6/8,9:15,42-34.35N,141-36.88E,179,12.96,31.5907
557,2018/6/8,9:16,42-34.07N,141-36.88E,179,12.906,31.6192
558,2018/6/8,9:17,42-33.79N,141-36.88E,179,12.808,31.6199
559,2018/6/8,9:18,42-33.52N,141-36.88E,179,12.685,31.6187
560,2018/6/8,9:19,42-33.24N,141-36.88E,179,12.753,31.6674
561,2018/6/8,9:20,42-32.97N,141-36.88E,179,12.711,31.7316
562,2018/6/8,9:21,42-32.69N,141-36.88E,180,12.605,31.7997
563,2018/6/8,9:22,42-32.41N,141-36.88E,179,12.557,31.8355
564,2018/6/8,9:23,42-32.13N,141-36.88E,179,12.412,31.8623
565,2018/6/8,9:24,42-31.86N,141-36.88E,180,11.592,31.8675
566,2018/6/8,9:25,42-31.58N,141-36.88E,179,11.215,31.8996
567,2018/6/8,9:26,42-31.30N,141-36.89E,179,11.878,31.918
568,2018/6/8,9:27,42-31.02N,141-36.89E,179,12.702,31.9021
569,2018/6/8,9:28,42-30.74N,141-36.89E,179,12.921,31.912
570,2018/6/8,9:29,42-30.45N,141-36.89E,180,12.968,31.943
571,2018/6/8,9:30,42-30.17N,141-36.89E,179,12.906,31.9844
572,2018/6/8,9:31,42-29.89N,141-36.89E,180,12.534,32.0067
573,2018/6/8,9:32,42-29.61N,141-36.89E,179,12.115,32.0064
574,2018/6/8,9:33,42-29.32N,141-36.89E,180,11.814,32.0048
575,2018/6/8,9:34,42-29.04N,141-36.88E,180,12.094,32.0176
576,2018/6/8,9:35,42-28.76N,141-36.89E,179,11.952,32.0487
577,2018/6/8,9:36,42-28.47N,141-36.88E,180,12.134,32.07
578,2018/6/8,9:37,42-28.19N,141-36.88E,179,12.055,32.051
579,2018/6/8,9:38,42-27.90N,141-36.88E,179,12.497,32.0368
580,2018/6/8,9:39,42-27.62N,141-36.88E,179,12.308,32.0357
581,2018/6/8,9:40,42-27.34N,141-36.89E,179,12.565,32.0557
582,2018/6/8,9:41,42-27.06N,141-36.89E,179,12.807,32.0711
583,2018/6/8,9:42,42-26.77N,141-36.90E,179,12.745,32.0714
584,2018/6/8,9:43,42-26.49N,141-36.90E,179,12.914,32.0772
585,2018/6/8,9:44,42-26.21N,141-36.90E,179,13.067,32.0646
586,2018/6/8,9:45,42-25.93N,141-36.90E,180,13.13,32.0461
587,2018/6/8,9:46,42-25.65N,141-36.90E,179,12.997,32.0282
588,2018/6/8,9:47,42-25.36N,141-36.90E,179,12.782,32.025
589,2018/6/8,9:48,42-25.08N,141-36.90E,179,12.723,32.0376
590,2018/6/8,9:49,42-24.80N,141-36.91E,179,12.575,32.0595
591,2018/6/8,9:50,42-24.51N,141-36.91E,179,12.285,32.077
592,2018/6/8,9:51,42-24.23N,141-36.91E,179,12.535,32.0948
593,2018/6/8,9:52,42-23.94N,141-36.91E,179,12.278,32.0655
594,2018/6/8,9:53,42-23.66N,141-36.92E,179,12.084,32.0489
595,2018/6/8,9:54,42-23.38N,141-36.92E,180,12.337,32.0353
596,2018/6/8,9:55,42-23.10N,141-36.91E,179,12.461,32
597,2018/6/8,9:56,42-22.82N,141-36.92E,179,12.324,31.9588
598,2018/6/8,9:57,42-22.54N,141-36.92E,179,12.207,31.9538
599,2018/6/8,9:58,42-22.26N,141-36.92E,179,12.029,31.9471
600,2018/6/8,9:59,42-21.98N,141-36.91E,180,12.204,31.9451
601,2018/6/8,10:00,42-21.71N,141-36.91E,180,12.517,31.9007
602,2018/6/8,10:01,42-21.43N,141-36.91E,180,12.653,31.7281
603,2018/6/8,10:02,42-21.16N,141-36.90E,180,12.123,31.7371
604,2018/6/8,10:03,42-20.88N,141-36.90E,180,11.992,31.822
605,2018/6/8,10:04,42-20.61N,141-36.90E,180,11.971,31.8666
606,2018/6/8,10:05,42-20.33N,141-36.89E,180,12.564,31.8737
607,2018/6/8,10:06,42-20.06N,141-36.89E,180,12.614,31.8527
608,2018/6/8,10:07,42-19.79N,141-36.88E,180,12.582,31.8514
609,2018/6/8,10:08,42-19.52N,141-36.88E,180,12.458,31.8528
610,2018/6/8,10:09,42-19.24N,141-36.88E,180,12.312,31.8776
611,2018/6/8,10:10,42-18.97N,141-36.87E,180,12.391,31.8978
612,2018/6/8,10:11,42-18.69N,141-36.87E,180,12.38,31.9073
613,2018/6/8,10:12,42-18.42N,141-36.87E,180,12.471,31.9086
614,2018/6/8,10:13,42-18.15N,141-36.87E,179,12.416,31.9068
615,2018/6/8,10:14,42-17.87N,141-36.86E,181,12.28,31.8943
616,2018/6/8,10:15,42-17.60N,141-36.86E,179,12.035,31.8719
617,2018/6/8,10:16,42-17.32N,141-36.86E,180,12.14,31.8752
618,2018/6/8,10:17,42-17.04N,141-36.85E,179,11.555,31.862
619,2018/6/8,10:18,42-16.76N,141-36.85E,179,11.708,31.868
620,2018/6/8,10:19,42-16.48N,141-36.85E,180,12.065,31.8745
621,2018/6/8,10:20,42-16.21N,141-36.85E,179,12.308,31.8446
622,2018/6/8,10:21,42-15.93N,141-36.85E,179,12.458,31.7398
623,2018/6/8,10:22,42-15.65N,141-36.86E,179,12.513,31.7082
624,2018/6/8,10:23,42-15.36N,141-36.85E,180,12.292,31.7381
625,2018/6/8,10:24,42-15.08N,141-36.86E,179,12.171,31.7717
626,2018/6/8,10:25,42-14.80N,141-36.86E,179,11.849,31.7861
627,2018/6/8,10:26,42-14.53N,141-36.86E,179,11.904,31.8161
628,2018/6/8,10:27,42-14.25N,141-36.86E,180,12.109,31.7725
629,2018/6/8,10:28,42-13.97N,141-36.86E,179,11.844,31.7206
630,2018/6/8,10:29,42-13.69N,141-36.87E,179,11.408,31.7661
631,2018/6/8,10:30,42-13.41N,141-36.87E,179,11.353,31.8276
632,2018/6/8,10:31,42-13.14N,141-36.87E,179,10.98,31.8428
633,2018/6/8,10:32,42-12.86N,141-36.88E,178,10.737,31.8523
634,2018/6/8,10:33,42-12.58N,141-36.89E,178,10.625,31.8737
635,2018/6/8,10:34,42-12.30N,141-36.90E,179,11.404,31.888
636,2018/6/8,10:35,42-12.03N,141-36.90E,179,11.598,31.8868
637,2018/6/8,10:36,42-11.75N,141-36.91E,179,10.668,31.9082
638,2018/6/8,10:37,42-11.47N,141-36.91E,179,10.404,32.0162
639,2018/6/8,10:38,42-11.20N,141-36.91E,179,11.211,32.0589
640,2018/6/8,10:39,42-10.91N,141-36.92E,179,11.726,32.0505
641,2018/6/8,10:40,42-10.64N,141-36.92E,179,11.233,31.9944
642,2018/6/8,10:41,42-10.36N,141-36.92E,179,11.55,32.0156
643,2018/6/8,10:42,42-10.08N,141-36.93E,179,11.821,31.9868
644,2018/6/8,10:43,42-09.80N,141-36.93E,180,11.041,31.9694
645,2018/6/8,10:44,42-09.51N,141-36.93E,179,11.16,32.0473
646,2018/6/8,10:45,42-09.23N,141-36.93E,180,11.727,32.0536
647,2018/6/8,10:46,42-08.95N,141-36.93E,180,11.812,31.9868
648,2018/6/8,10:47,42-08.67N,141-36.93E,180,12.313,31.9226
649,2018/6/8,10:48,42-08.39N,141-36.92E,180,12.447,31.7884
650,2018/6/8,10:49,42-08.12N,141-36.92E,180,12.42,31.7916
651,2018/6/8,10:50,42-07.84N,141-36.92E,180,12.394,31.864
652,2018/6/8,10:51,42-07.56N,141-36.91E,180,12.332,31.949
653,2018/6/8,10:52,42-07.28N,141-36.91E,180,12.576,31.9913
654,2018/6/8,10:53,42-07.01N,141-36.90E,180,12.672,31.9533
655,2018/6/8,10:54,42-06.73N,141-36.90E,180,12.674,31.9327
656,2018/6/8,10:55,42-06.46N,141-36.89E,180,12.348,31.9309
657,2018/6/8,10:56,42-06.18N,141-36.89E,180,11.97,31.9674
658,2018/6/8,10:57,42-05.91N,141-36.88E,181,11.75,31.9899
659,2018/6/8,10:58,42-05.63N,141-36.87E,181,11.879,31.993
660,2018/6/8,10:59,42-05.35N,141-36.87E,181,11.876,31.9891
661,2018/6/8,11:00,42-05.08N,141-36.86E,180,12.061,31.9943
662,2018/6/8,11:01,42-04.81N,141-36.85E,181,12.266,31.9981
663,2018/6/8,11:02,42-04.54N,141-36.85E,180,12.474,31.9901
664,2018/6/8,11:03,42-04.26N,141-36.84E,181,12.164,32.0007
665,2018/6/8,11:04,42-03.98N,141-36.83E,180,11.991,32.0253
666,2018/6/8,11:05,42-03.71N,141-36.82E,181,12.093,32.0244
667,2018/6/8,11:06,42-03.43N,141-36.81E,181,11.847,32.0076
668,2018/6/8,11:07,42-03.15N,141-36.80E,181,12.013,32.0022
669,2018/6/8,11:08,42-02.86N,141-36.79E,181,11.869,31.9914
670,2018/6/8,11:09,42-02.59N,141-36.78E,181,11.725,31.9655
671,2018/6/8,11:10,42-02.31N,141-36.77E,181,11.869,31.9709
672,2018/6/8,11:11,42-02.03N,141-36.76E,181,11.978,32
673,2018/6/8,11:12,42-01.75N,141-36.75E,181,12.026,32.0213
674,2018/6/8,11:13,42-01.48N,141-36.74E,181,12.17,32.0637
675,2018/6/8,11:14,42-01.20N,141-36.73E,181,12.386,32.1205
676,2018/6/8,11:15,42-00.93N,141-36.72E,181,12.446,32.1412
677,2018/6/8,11:16,42-00.66N,141-36.71E,181,12.661,32.388
678,2018/6/8,11:17,42-00.38N,141-36.70E,181,12.826,32.5066
679,2018/6/8,11:18,42-00.11N,141-36.70E,180,13.121,32.545
680,2018/6/8,11:19,41-59.84N,141-36.69E,180,13.115,32.6522
681,2018/6/8,11:20,41-59.56N,141-36.68E,180,13.286,32.6727
682,2018/6/8,11:21,41-59.30N,141-36.68E,180,13.081,32.6683
683,2018/6/8,11:22,41-59.02N,141-36.67E,181,12.993,32.7168
684,2018/6/8,11:23,41-58.75N,141-36.66E,180,12.874,32.7175
685,2018/6/8,11:24,41-58.48N,141-36.66E,180,12.843,32.7164
686,2018/6/8,11:25,41-58.20N,141-36.66E,180,12.69,32.7271
687,2018/6/8,11:26,41-57.93N,141-36.66E,180,12.669,32.7602
688,2018/6/8,11:27,41-57.66N,141-36.65E,180,12.623,32.7854
689,2018/6/8,11:28,41-57.39N,141-36.65E,180,12.768,32.8028
690,2018/6/8,11:29,41-57.11N,141-36.64E,180,12.804,32.7915
691,2018/6/8,11:30,41-56.84N,141-36.64E,180,12.718,32.7575
692,2018/6/8,11:31,41-56.56N,141-36.64E,180,12.646,32.7221
693,2018/6/8,11:32,41-56.28N,141-36.64E,180,12.62,32.746
694,2018/6/8,11:33,41-56.01N,141-36.63E,180,12.64,32.7457
695,2018/6/8,11:34,41-55.74N,141-36.63E,180,12.636,32.7421
696,2018/6/8,11:35,41-55.46N,141-36.63E,179,12.514,32.7578
697,2018/6/8,11:36,41-55.19N,141-36.63E,180,12.491,32.7775
698,2018/6/8,11:37,41-54.91N,141-36.62E,180,12.423,32.7906
699,2018/6/8,11:38,41-54.63N,141-36.62E,180,12.534,32.8212
700,2018/6/8,11:39,41-54.36N,141-36.62E,180,12.581,32.7885
701,2018/6/8,11:40,41-54.08N,141-36.61E,181,12.642,32.7689
702,2018/6/8,11:41,41-53.80N,141-36.60E,181,12.68,32.7499
703,2018/6/8,11:42,41-53.52N,141-36.60E,180,12.666,32.7497
704,2018/6/8,11:43,41-53.25N,141-36.60E,180,12.564,32.7621
705,2018/6/8,11:44,41-52.97N,141-36.59E,180,12.63,32.7743
706,2018/6/8,11:45,41-52.69N,141-36.58E,180,12.515,32.781
707,2018/6/8,11:46,41-52.41N,141-36.58E,180,12.41,32.7861
708,2018/6/8,11:47,41-52.13N,141-36.58E,180,12.282,32.808
709,2018/6/8,11:48,41-51.85N,141-36.57E,180,12.346,32.8175
710,2018/6/8,11:49,41-51.57N,141-36.57E,180,12.525,32.8204
711,2018/6/8,11:50,41-51.29N,141-36.56E,180,12.547,32.8048
712,2018/6/8,11:51,41-51.02N,141-36.56E,180,12.739,32.7846
713,2018/6/8,11:52,41-50.74N,141-36.56E,179,12.768,32.7506
714,2018/6/8,11:53,41-50.47N,141-36.56E,180,12.745,32.7078
715,2018/6/8,11:54,41-50.19N,141-36.55E,180,12.698,32.6813
716,2018/6/8,11:55,41-49.92N,141-36.56E,179,12.596,32.693
717,2018/6/8,11:56,41-49.65N,141-36.56E,179,12.6,32.6785
718,2018/6/8,11:57,41-49.37N,141-36.56E,179,12.634,32.6591
719,2018/6/8,11:58,41-49.10N,141-36.56E,180,12.475,32.6388
720,2018/6/8,11:59,41-48.82N,141-36.56E,179,12.389,32.654
721,2018/6/8,12:00,41-48.54N,141-36.56E,179,12.454,32.6562
722,2018/6/8,12:01,41-48.27N,141-36.57E,179,12.348,32.655
723,2018/6/8,12:02,41-47.99N,141-36.57E,179,12.429,32.666
724,2018/6/8,12:03,41-47.71N,141-36.58E,178,12.909,32.6794
725,2018/6/8,12:04,41-47.43N,141-36.59E,178,13.047,32.6626
726,2018/6/8,12:05,41-47.16N,141-36.59E,179,12.948,32.6269
727,2018/6/8,12:06,41-46.89N,141-36.59E,179,13.015,32.6325
728,2018/6/8,12:07,41-46.62N,141-36.60E,178,12.672,32.6432
729,2018/6/8,12:08,41-46.34N,141-36.61E,177,12.572,32.6709
730,2018/6/8,12:09,41-46.06N,141-36.63E,177,12.216,32.707
731,2018/6/8,12:10,41-45.79N,141-36.63E,178,12.096,32.7961
732,2018/6/8,12:11,41-45.51N,141-36.65E,177,11.972,32.8318
733,2018/6/8,12:12,41-45.24N,141-36.67E,176,11.948,32.9782
734,2018/6/8,12:13,41-44.97N,141-36.69E,177,11.977,33.1987
735,2018/6/8,12:14,41-44.69N,141-36.71E,177,12.028,33.2433
736,2018/6/8,12:15,41-44.41N,141-36.72E,177,12.138,33.2337
737,2018/6/8,12:16,41-44.14N,141-36.74E,177,12.125,33.1495
738,2018/6/8,12:17,41-43.87N,141-36.76E,176,12.026,33.1296
739,2018/6/8,12:18,41-43.59N,141-36.79E,173,11.768,33.088
740,2018/6/8,12:19,41-43.32N,141-36.84E,172,10.973,33.0665
741,2018/6/8,12:20,41-43.05N,141-36.87E,175,10.826,33.2747
742,2018/6/8,12:21,41-42.77N,141-36.91E,174,10.641,33.3236
743,2018/6/8,12:22,41-42.50N,141-36.94E,174,10.579,33.2915
744,2018/6/8,12:23,41-42.23N,141-36.97E,176,10.583,33.2236
745,2018/6/8,12:24,41-41.96N,141-36.99E,176,10.679,33.0351
746,2018/6/8,12:25,41-41.69N,141-37.01E,176,10.554,32.9285
747,2018/6/8,12:26,41-41.41N,141-37.03E,176,10.567,32.8653
748,2018/6/8,12:27,41-41.14N,141-37.05E,176,10.843,32.9031
749,2018/6/8,12:28,41-40.87N,141-37.07E,176,10.729,33.0599
750,2018/6/8,12:29,41-40.60N,141-37.08E,178,10.789,33.2554
751,2018/6/8,12:30,41-40.33N,141-37.08E,180,10.463,33.4004
752,2018/6/8,12:31,41-40.06N,141-37.08E,180,10.275,33.2997
753,2018/6/8,12:32,41-39.78N,141-37.08E,179,10.382,33.0425
754,2018/6/8,12:33,41-39.50N,141-37.09E,179,10.697,32.8153
755,2018/6/8,12:34,41-39.22N,141-37.06E,183,11.15,32.9629
756,2018/6/8,12:35,41-38.95N,141-37.04E,181,11.468,32.5656
757,2018/6/8,12:36,41-38.67N,141-37.04E,180,11.261,32.1992
758,2018/6/8,12:37,41-38.40N,141-37.04E,179,10.774,32.1657
759,2018/6/8,12:38,41-38.12N,141-37.04E,180,10.547,32.2459
760,2018/6/8,12:39,41-37.84N,141-37.03E,181,10.138,32.3345
761,2018/6/8,12:40,41-37.57N,141-37.02E,180,9.9,32.3666
762,2018/6/8,12:41,41-37.30N,141-37.01E,181,10.271,32.4222
763,2018/6/8,12:42,41-37.02N,141-36.99E,186,10.606,32.3842
764,2018/6/8,12:43,41-36.75N,141-36.96E,185,10.866,32.3204
765,2018/6/8,12:44,41-36.48N,141-36.94E,183,11.214,32.4466
766,2018/6/8,12:45,41-36.22N,141-36.92E,182,11,32.3481
767,2018/6/8,12:46,41-35.95N,141-36.89E,184,11.088,32.4334
768,2018/6/8,12:47,41-35.68N,141-36.87E,183,10.78,32.3434
769,2018/6/8,12:48,41-35.42N,141-36.85E,182,10.716,32.4197
770,2018/6/8,12:49,41-35.15N,141-36.83E,182,10.923,32.6519
771,2018/6/8,12:50,41-34.89N,141-36.80E,184,10.954,32.9275
772,2018/6/8,12:51,41-34.62N,141-36.78E,184,11.222,32.8884
773,2018/6/8,12:52,41-34.34N,141-36.75E,184,11.403,32.9363
774,2018/6/8,12:53,41-34.08N,141-36.72E,184,11.546,33.0172
775,2018/6/8,12:54,41-33.80N,141-36.69E,184,11.729,33.0714
776,2018/6/8,12:55,41-33.54N,141-36.67E,183,11.825,33.1542
777,2018/6/8,12:56,41-33.26N,141-36.65E,183,12.218,33.198
778,2018/6/8,12:57,41-32.99N,141-36.62E,183,12.493,33.5002
779,2018/6/8,12:58,41-32.72N,141-36.61E,180,12.483,33.5746
780,2018/6/8,12:59,41-32.46N,141-36.61E,178,12.572,33.6305
781,2018/6/8,13:00,41-32.19N,141-36.62E,178,12.651,33.6585
782,2018/6/8,13:01,41-31.91N,141-36.63E,178,12.572,33.6567
783,2018/6/8,13:02,41-31.64N,141-36.64E,178,12.612,33.6736
784,2018/6/8,13:03,41-31.36N,141-36.64E,178,12.714,33.6727
785,2018/6/8,13:04,41-31.09N,141-36.65E,179,12.709,33.662
786,2018/6/8,13:05,41-30.81N,141-36.65E,178,12.793,33.6599
787,2018/6/8,13:06,41-30.53N,141-36.66E,179,12.789,33.6533
788,2018/6/8,13:07,41-30.25N,141-36.66E,179,12.802,33.652
789,2018/6/8,13:08,41-29.97N,141-36.65E,180,12.811,33.6479
790,2018/6/8,13:09,41-29.69N,141-36.65E,181,12.873,33.6461
791,2018/6/8,13:10,41-29.41N,141-36.63E,182,13.102,33.641
792,2018/6/8,13:11,41-29.12N,141-36.63E,180,13.205,33.6244
793,2018/6/8,13:12,41-28.84N,141-36.62E,181,13.234,33.6124
794,2018/6/8,13:13,41-28.55N,141-36.61E,181,13.197,33.6095
795,2018/6/8,13:14,41-28.26N,141-36.60E,181,13.171,33.6123
796,2018/6/8,13:15,41-27.98N,141-36.58E,182,13.16,33.6081
797,2018/6/8,13:16,41-27.69N,141-36.57E,181,13.198,33.6065
798,2018/6/8,13:17,41-27.40N,141-36.57E,180,13.251,33.6038
799,2018/6/8,13:18,41-27.11N,141-36.56E,181,13.439,33.597
800,2018/6/8,13:19,41-26.82N,141-36.55E,181,13.606,33.583
801,2018/6/8,13:20,41-26.53N,141-36.55E,180,13.712,33.5667
802,2018/6/8,13:21,41-26.24N,141-36.55E,180,13.697,33.5587
803,2018/6/8,13:22,41-25.94N,141-36.54E,181,13.74,33.5542
804,2018/6/8,13:23,41-25.65N,141-36.57E,171,13.743,33.5532
805,2018/6/8,13:24,41-25.37N,141-36.65E,168,13.908,33.5572
806,2018/6/8,13:25,41-25.09N,141-36.73E,167,14.153,33.5497
807,2018/6/8,13:26,41-24.81N,141-36.82E,166,13.685,33.5156
808,2018/6/8,13:27,41-24.52N,141-36.91E,167,13.044,33.3368
809,2018/6/8,13:28,41-24.24N,141-36.99E,168,12.899,33.0784
810,2018/6/8,13:29,41-23.96N,141-37.06E,168,12.915,33.0138
811,2018/6/8,13:30,41-23.68N,141-37.14E,168,12.851,33.0301
812,2018/6/8,13:31,41-23.39N,141-37.21E,169,12.871,33.152
813,2018/6/8,13:32,41-23.11N,141-37.28E,168,13.087,33.2257
814,2018/6/8,13:33,41-22.83N,141-37.37E,167,13.176,33.2214
815,2018/6/8,13:34,41-22.55N,141-37.46E,166,13.563,33.2432
816,2018/6/8,13:35,41-22.27N,141-37.55E,165,13.398,33.2834
817,2018/6/8,13:36,41-22.00N,141-37.64E,165,13.358,33.3223
818,2018/6/8,13:37,41-21.72N,141-37.74E,165,13.272,33.2594
819,2018/6/8,13:38,41-21.46N,141-37.83E,165,13.205,33.1581
820,2018/6/8,13:39,41-21.19N,141-37.92E,165,13.185,33.0972
821,2018/6/8,13:40,41-20.92N,141-38.02E,164,13.225,33.0169
822,2018/6/8,13:41,41-20.66N,141-38.11E,164,13.205,32.908
823,2018/6/8,13:42,41-20.39N,141-38.20E,165,13.264,32.8568
824,2018/6/8,13:43,41-20.13N,141-38.30E,164,13.421,32.8371
825,2018/6/8,13:44,41-19.86N,141-38.39E,165,13.512,32.7653
826,2018/6/8,13:45,41-19.60N,141-38.48E,165,13.487,32.6991
827,2018/6/8,13:46,41-19.34N,141-38.57E,165,13.538,32.6704
828,2018/6/8,13:47,41-19.08N,141-38.66E,165,13.462,32.6566
829,2018/6/8,13:48,41-18.81N,141-38.74E,168,13.497,32.6471
830,2018/6/8,13:49,41-18.54N,141-38.80E,171,13.494,32.6346
831,2018/6/8,13:50,41-18.27N,141-38.84E,173,13.484,32.6203
832,2018/6/8,13:51,41-18.00N,141-38.88E,174,13.433,32.6038
833,2018/6/8,13:52,41-17.72N,141-38.91E,173,13.404,32.5851
834,2018/6/8,13:53,41-17.45N,141-38.96E,173,13.266,32.5646
835,2018/6/8,13:54,41-17.18N,141-39.00E,173,13.251,32.5509
836,2018/6/8,13:55,41-16.91N,141-39.04E,173,13.215,32.5397
837,2018/6/8,13:56,41-16.63N,141-39.08E,173,13.197,32.5354
838,2018/6/8,13:57,41-16.36N,141-39.13E,172,13.156,32.5366
839,2018/6/8,13:58,41-16.09N,141-39.17E,173,13.041,32.5362
840,2018/6/8,13:59,41-15.82N,141-39.21E,173,13.007,32.54
841,2018/6/8,14:00,41-15.54N,141-39.25E,173,12.827,32.5483
842,2018/6/8,14:01,41-15.27N,141-39.30E,173,12.574,32.5753
843,2018/6/8,14:02,41-14.99N,141-39.34E,173,12.731,32.5958
844,2018/6/8,14:03,41-14.72N,141-39.38E,172,12.718,32.5864
845,2018/6/8,14:04,41-14.45N,141-39.43E,171,12.525,32.5688
846,2018/6/8,14:05,41-14.18N,141-39.48E,171,12.549,32.5723
847,2018/6/8,14:06,41-13.91N,141-39.54E,171,12.677,32.5657
848,2018/6/8,14:07,41-13.64N,141-39.60E,170,12.776,32.5578
849,2018/6/8,14:08,41-13.37N,141-39.65E,171,12.756,32.5725
850,2018/6/8,14:09,41-13.10N,141-39.70E,171,12.622,32.5768
851,2018/6/8,14:10,41-12.82N,141-39.76E,170,12.631,32.5845
852,2018/6/8,14:11,41-12.54N,141-39.82E,170,12.207,32.5884
853,2018/6/8,14:12,41-12.27N,141-39.88E,170,12.045,32.5859
854,2018/6/8,14:13,41-12.01N,141-39.94E,169,12.364,32.5822
855,2018/6/8,14:14,41-11.73N,141-40.02E,168,12.89,32.5884
856,2018/6/8,14:15,41-11.46N,141-40.09E,167,12.706,32.5992
857,2018/6/8,14:16,41-11.20N,141-40.17E,167,12.977,32.5862
858,2018/6/8,14:17,41-10.93N,141-40.25E,167,12.902,32.5829
859,2018/6/8,14:18,41-10.66N,141-40.33E,167,13.057,32.5736
860,2018/6/8,14:19,41-10.39N,141-40.41E,167,13.214,32.57
861,2018/6/8,14:20,41-10.12N,141-40.49E,167,13.122,32.571
862,2018/6/8,14:21,41-09.84N,141-40.57E,167,12.725,32.5583
863,2018/6/8,14:22,41-09.57N,141-40.65E,167,12.849,32.5272
864,2018/6/8,14:23,41-09.30N,141-40.73E,167,13.09,32.5076
865,2018/6/8,14:24,41-09.03N,141-40.82E,167,13.109,32.4966
866,2018/6/8,14:25,41-08.76N,141-40.90E,167,12.96,32.4882
867,2018/6/8,14:26,41-08.49N,141-40.98E,167,12.921,32.4819
868,2018/6/8,14:27,41-08.22N,141-41.05E,167,12.672,32.482
869,2018/6/8,14:28,41-07.95N,141-41.13E,167,12.64,32.4784
870,2018/6/8,14:29,41-07.68N,141-41.21E,167,12.737,32.4819
871,2018/6/8,14:30,41-07.41N,141-41.30E,167,12.617,32.496
872,2018/6/8,14:31,41-07.14N,141-41.38E,167,12.675,32.5083
873,2018/6/8,14:32,41-06.87N,141-41.46E,167,12.784,32.5281
874,2018/6/8,14:33,41-06.60N,141-41.54E,166,13.366,32.5629
875,2018/6/8,14:34,41-06.33N,141-41.63E,164,13.676,32.6242
876,2018/6/8,14:35,41-06.07N,141-41.73E,164,14.13,32.6911
877,2018/6/8,14:36,41-05.80N,141-41.83E,164,14.576,32.7894
878,2018/6/8,14:37,41-05.54N,141-41.93E,164,14.998,32.9368
879,2018/6/8,14:38,41-05.27N,141-42.03E,163,15.385,33.0817
880,2018/6/8,14:39,41-05.00N,141-42.13E,163,16.224,33.2639
881,2018/6/8,14:40,41-04.73N,141-42.23E,164,16.573,33.6027
882,2018/6/8,14:41,41-04.47N,141-42.33E,163,16.743,33.7613
883,2018/6/8,14:42,41-04.20N,141-42.43E,163,16.897,33.8408
884,2018/6/8,14:43,41-03.93N,141-42.54E,163,16.902,33.9171
885,2018/6/8,14:44,41-03.66N,141-42.64E,163,16.847,33.9482
886,2018/6/8,14:45,41-03.39N,141-42.74E,163,16.75,33.9418
887,2018/6/8,14:46,41-03.13N,141-42.84E,163,16.658,33.9091
888,2018/6/8,14:47,41-02.85N,141-42.95E,163,16.531,33.9163
889,2018/6/8,14:48,41-02.59N,141-43.05E,163,16.456,33.9312
890,2018/6/8,14:49,41-02.32N,141-43.15E,165,16.385,33.898
891,2018/6/8,14:50,41-02.05N,141-43.23E,166,16.288,33.8571
892,2018/6/8,14:51,41-01.78N,141-43.32E,166,16.145,33.8209
893,2018/6/8,14:52,41-01.50N,141-43.41E,166,15.978,33.8116
894,2018/6/8,14:53,41-01.23N,141-43.49E,166,16.047,33.7398
895,2018/6/8,14:54,41-00.97N,141-43.57E,166,16.109,33.7708
896,2018/6/8,14:55,41-00.70N,141-43.65E,166,15.967,33.852
897,2018/6/8,14:56,41-00.43N,141-43.73E,168,15.993,33.9163
898,2018/6/8,14:57,41-00.15N,141-43.79E,171,15.909,33.8314
899,2018/6/8,14:58,40-59.88N,141-43.84E,172,15.821,33.7167
900,2018/6/8,14:59,40-59.60N,141-43.88E,173,15.681,33.7174
901,2018/6/8,15:00,40-59.33N,141-43.93E,173,15.632,33.7348
902,2018/6/8,15:01,40-59.05N,141-43.97E,172,15.558,33.6516
903,2018/6/8,15:02,40-58.77N,141-44.02E,172,15.621,33.6087
904,2018/6/8,15:03,40-58.49N,141-44.06E,173,15.543,33.7076
905,2018/6/8,15:04,40-58.22N,141-44.10E,172,15.299,33.7269
906,2018/6/8,15:05,40-57.94N,141-44.15E,173,14.734,33.6117
907,2018/6/8,15:06,40-57.67N,141-44.19E,173,13.82,33.5497
908,2018/6/8,15:07,40-57.40N,141-44.23E,172,12.592,33.3993
909,2018/6/8,15:08,40-57.12N,141-44.28E,172,12.892,33.2793
910,2018/6/8,15:09,40-56.84N,141-44.32E,172,13.296,33.3078
911,2018/6/8,15:10,40-56.57N,141-44.37E,172,14.326,33.2979
912,2018/6/8,15:11,40-56.29N,141-44.42E,172,14.411,33.2914
913,2018/6/8,15:12,40-56.01N,141-44.46E,172,14.338,33.257
914,2018/6/8,15:13,40-55.73N,141-44.51E,172,14.129,33.226
915,2018/6/8,15:14,40-55.45N,141-44.55E,172,13.755,33.2516
916,2018/6/8,15:15,40-55.17N,141-44.60E,172,14.315,33.2757
917,2018/6/8,15:16,40-54.89N,141-44.65E,171,13.939,33.1557
918,2018/6/8,15:17,40-54.61N,141-44.71E,170,13.611,33.0755
919,2018/6/8,15:18,40-54.33N,141-44.77E,171,12.778,33.0588
920,2018/6/8,15:19,40-54.04N,141-44.82E,171,13.25,33.0156
921,2018/6/8,15:20,40-53.76N,141-44.87E,171,13.179,33.1571
922,2018/6/8,15:21,40-53.48N,141-44.93E,170,12.58,33.1875
923,2018/6/8,15:22,40-53.20N,141-44.99E,170,12.967,33.1205
924,2018/6/8,15:23,40-52.92N,141-45.05E,170,13.125,33.1689
925,2018/6/8,15:24,40-52.64N,141-45.11E,171,13.429,33.2497
926,2018/6/8,15:25,40-52.35N,141-45.17E,170,13.259,33.2359
927,2018/6/8,15:26,40-52.07N,141-45.23E,170,12.948,33.0877
928,2018/6/8,15:27,40-51.78N,141-45.30E,169,12.72,33.034
929,2018/6/8,15:28,40-51.50N,141-45.36E,169,12.75,32.9985
930,2018/6/8,15:29,40-51.21N,141-45.43E,170,12.957,33.049
931,2018/6/8,15:30,40-50.93N,141-45.49E,169,13.019,33.1524
932,2018/6/8,15:31,40-50.64N,141-45.56E,169,13.205,33.2051
933,2018/6/8,15:32,40-50.36N,141-45.63E,169,13.38,33.2839
934,2018/6/8,15:33,40-50.07N,141-45.69E,169,13.592,33.3527
935,2018/6/8,15:34,40-49.79N,141-45.76E,169,13.612,33.4229
936,2018/6/8,15:35,40-49.51N,141-45.83E,169,13.531,33.4644
937,2018/6/8,15:36,40-49.22N,141-45.90E,169,13.531,33.4904
938,2018/6/8,15:37,40-48.94N,141-45.97E,169,13.542,33.4978
939,2018/6/8,15:38,40-48.66N,141-46.04E,169,13.567,33.5007
940,2018/6/8,15:39,40-48.37N,141-46.08E,176,13.632,33.492
941,2018/6/8,15:40,40-48.08N,141-46.08E,181,13.487,33.4703
942,2018/6/8,15:41,40-47.79N,141-46.07E,181,13.292,33.4576
943,2018/6/8,15:42,40-47.50N,141-46.06E,182,13.17,33.4641
944,2018/6/8,15:43,40-47.22N,141-46.04E,182,13.053,33.472
945,2018/6/8,15:44,40-46.94N,141-46.03E,182,12.971,33.4754
946,2018/6/8,15:45,40-46.65N,141-46.01E,182,12.915,33.4743
947,2018/6/8,15:46,40-46.36N,141-46.00E,181,12.912,33.4659
948,2018/6/8,15:47,40-46.08N,141-45.99E,182,13.053,33.4617